EW8927 Weather Reports


time (UTC)temp
C
wind
direction
speed
KPH
gust
KPH
rain 1hr
cm
rain 24hr
cm
rain mn
cm
humidity
%
barometer
mb
20260506233006 30 132 6.4 19.3 0.00 0.00 0.00 17 1009.4
20260506231504 31 290 1.6 11.3 0.00 0.00 0.00 16 1009.6
20260506230000 30 279 4.8 17.7 0.00 0.00 0.00 16 1010.0
20260506224559 30 49 4.8 20.9 0.00 0.00 0.00 17 1010.0
20260506223056 30 100 4.8 19.3 0.00 0.00 0.00 17 1010.2
20260506221558 29 58 9.7 19.3 0.00 0.00 0.00 18 1010.4
20260506220053 30 56 11.3 25.7 0.00 0.00 0.00 17 1010.6
20260506214552 29 95 6.4 25.7 0.00 0.00 0.00 18 1010.8
20260506213048 29 102 12.9 24.1 0.00 0.00 0.00 18 1011.0
20260506211551 29 83 14.5 30.6 0.00 0.00 0.00 18 1011.1
20260506210045 28 65 19.3 29.0 0.00 0.00 0.00 19 1011.3
20260506204544 29 90 12.9 30.6 0.00 0.00 0.00 19 1011.4
20260506203042 28 57 11.3 22.5 0.00 0.00 0.00 20 1011.5
20260506201540 28 83 12.9 24.1 0.00 0.00 0.00 21 1011.6
20260506200043 28 35 12.9 22.5 0.00 0.00 0.00 22 1011.9
20260506194539 27 61 4.8 17.7 0.00 0.00 0.00 24 1012.1
20260506193033 27 98 9.7 19.3 0.00 0.00 0.00 23 1012.4
20260506191530 26 184 1.6 16.1 0.00 0.00 0.00 25 1012.8
20260506190027 26 306 3.2 9.7 0.00 0.00 0.00 25 1013.0
20260506184523 25 86 8.0 16.1 0.00 0.00 0.00 26 1013.1
20260506183021 26 270 3.2 9.7 0.00 0.00 0.00 26 1013.3
20260506181519 23 103 3.2 11.3 0.00 0.00 0.00 29 1013.5
20260506180018 22 72 1.6 6.4 0.00 0.00 0.00 31 1013.7
20260506174510 22 14 4.8 12.9 0.00 0.00 0.00 32 1013.8
20260506173006 22 105 3.2 12.9 0.00 0.00 0.00 32 1013.8
20260506171502 21 73 3.2 8.0 0.00 0.00 0.00 33 1013.7
20260506170108 22 277 3.2 9.7 0.00 0.00 0.00 32 1013.8
20260506164612 21 334 1.6 6.4 0.00 0.00 0.00 35 1014.0
20260506163055 21 292 1.6 6.4 0.00 0.00 0.00 36 1014.0
20260506161545 20 294 3.2 6.4 0.00 0.00 0.00 37 1014.0
20260506160047 20 265 4.8 11.3 0.00 0.00 0.00 37 1014.0
20260506154547 18 221 4.8 9.7 0.00 0.00 0.00 41 1014.0
20260506153035 17 227 1.6 6.4 0.00 0.00 0.00 43 1013.8
20260506151533 17 286 1.6 6.4 0.00 0.00 0.00 44 1014.0
20260506150027 16 282 3.2 6.4 0.00 0.00 0.00 47 1013.9
20260506144527 15 360 0.0 4.8 0.00 0.00 0.00 50 1013.9
20260506143022 13 26 3.2 6.4 0.00 0.00 0.00 53 1013.8
20260506141515 13 29 3.2 6.4 0.00 0.00 0.00 55 1013.6
20260506140011 13 360 0.0 1.6 0.00 0.00 0.00 55 1013.4
20260506134506 12 302 0.0 1.6 0.00 0.00 0.00 59 1013.3
20260506133001 11 279 0.0 0.0 0.00 0.00 0.00 60 1013.0
20260506131558 10 279 0.0 3.2 0.00 0.00 0.00 64 1012.9
20260506130055 10 279 0.0 3.2 0.00 0.00 0.00 63 1012.6
20260506124551 10 279 0.0 1.6 0.00 0.00 0.00 63 1012.5
20260506123048 11 277 1.6 4.8 0.00 0.00 0.00 61 1012.2
20260506121555 11 301 0.0 4.8 0.00 0.00 0.00 60 1012.2
20260506120107 12 223 3.2 12.9 0.00 0.00 0.00 58 1012.1
20260506114544 12 360 4.8 12.9 0.00 0.00 0.00 58 1012.0
20260506113038 12 360 4.8 11.3 0.00 0.00 0.00 56 1011.9
20260506111539 12 225 4.8 12.9 0.00 0.00 0.00 55 1011.8
20260506110035 12 221 8.0 14.5 0.00 0.00 0.00 56 1011.7
20260506104534 12 190 0.0 12.9 0.00 0.00 0.00 56 1011.7
20260506103035 12 198 1.6 8.0 0.00 0.00 0.00 56 1011.6
20260506101530 12 199 3.2 9.7 0.00 0.00 0.00 57 1011.4
20260506100033 12 234 4.8 9.7 0.00 0.00 0.00 56 1011.4
20260506094533 13 360 4.8 9.7 0.00 0.00 0.00 55 1011.2
20260506093041 13 360 6.4 11.3 0.00 0.00 0.00 55 1011.2
20260506091525 13 217 6.4 17.7 0.00 0.00 0.00 55 1011.1
20260506090023 13 191 6.4 16.1 0.00 0.00 0.00 55 1011.1
20260506084521 13 202 9.7 16.1 0.00 0.00 0.00 54 1011.1
20260506083019 13 232 6.4 14.5 0.00 0.00 0.00 53 1011.1
20260506081516 13 360 4.8 14.5 0.00 0.00 0.00 52 1011.2
20260506073009 15 196 9.7 19.3 0.00 0.00 0.00 49 1010.9
20260506071508 15 360 12.9 19.3 0.00 0.00 0.00 48 1010.8
20260506061603 15 212 11.3 19.3 0.00 0.00 0.00 48 1010.1
20260506050113 15 189 11.3 22.5 0.00 0.00 0.00 47 1009.3
20260506044559 15 190 11.3 22.5 0.00 0.00 0.00 47 1009.2
20260506043051 16 212 11.3 19.3 0.00 0.00 0.00 46 1009.1
20260506041553 16 208 9.7 19.3 0.00 0.00 0.00 46 1008.8
20260506040047 16 189 8.0 22.5 0.00 0.00 0.00 45 1008.7
20260506034545 17 227 9.7 25.7 0.00 0.00 0.00 43 1008.3
20260506033043 17 196 9.7 24.1 0.00 0.00 0.00 42 1007.9
20260506031555 17 205 11.3 24.1 0.00 0.00 0.00 41 1007.7
20260506030057 18 201 11.3 27.4 0.00 0.00 0.00 39 1007.1
20260506024541 19 360 12.9 27.4 0.00 0.00 0.00 38 1006.8
20260506023041 20 360 6.4 16.1 0.00 0.00 0.00 34 1006.6
20260506021540 20 202 9.7 24.1 0.00 0.00 0.00 33 1006.4
20260506020039 21 175 8.0 16.1 0.00 0.00 0.00 34 1006.3
20260506014539 21 192 8.0 16.1 0.00 0.00 0.00 34 1006.2
20260506013044 21 232 11.3 19.3 0.00 0.00 0.00 32 1006.0
20260506011538 22 136 8.0 19.3 0.00 0.00 0.00 30 1006.0
20260506010037 22 269 3.2 9.7 0.00 0.00 0.00 29 1006.0
20260506004604 22 292 4.8 11.3 0.00 0.00 0.00 28 1005.8
20260506003036 23 211 4.8 9.7 0.00 0.00 0.00 28 1005.7
20260506001535 23 133 6.4 12.9 0.00 0.00 0.00 27 1005.6
20260506000034 23 308 1.6 11.3 0.00 0.00 0.00 27 1005.7
20260505234603 23 287 8.0 12.9 0.00 0.00 0.00 27 1005.7